Location: *
(43.7000°S, 168.7000°W)
Time: 12:03:14
(UTC+00:00)

BREEZE-M DEB (TANK) - Pass Details

Date: 07 July 2020
Orbit: 295 x 13820 km, 49.6° (Epoch: 09 August)

Event Time Altitude Azimuth Distance (km) Brightness Sun altitude
Exits shadow 17:32:24 16° 258° (WSW) 3,535 6.2 -13.2°
Maximum altitude 17:38:48 44° 191° (S) 1,077 4.0 -12.1°
Drops below altitude 10° 17:41:59 10° 115° (ESE) 1,664 5.9 -11.5°
Sets 17:43:25 0° 106° (ESE) 2,290 6.9 -11.3°
